RYR425M EHEH-LERS

Flight info

Callsign RYR425M
Flight time 1h 54m
Altitude 36000
Route WOODY N872 MEDIL DCT KOVIN DCT DUCRA UM728 RESMI UN857 DISAK DCT DIRMO DCT VALKU DCT ATSUP DCT MINSO DCT DEGOL DCT PPG DCT ALBER P84 GIR
Aircraft B738/M-SDE2E3FGHIRWXY/LB1

Departure

Time 2026-05-09 15:31
Airport Eindhoven Airport (EHEH)

Arrival

Time 2026-05-09 17:25
Airport Reus Airport (LERS)
Time Latitude Longitude Altitude Speed Heading
2026-05-09 14:57 51.45856 5.39055 74 ft 0 kts 124°
2026-05-09 15:17 51.45867 5.39030 63 ft 4 kts 127°
2026-05-09 15:18 51.45883 5.38994 65 ft 4 kts 119°
2026-05-09 15:18 51.45891 5.38967 65 ft 4 kts 86°
2026-05-09 15:18 51.45880 5.38934 67 ft 4 kts 38°
2026-05-09 15:18 51.45869 5.38920 63 ft 0 kts 35°
2026-05-09 15:22 51.45873 5.38925 69 ft 2 kts 35°
2026-05-09 15:22 51.45895 5.38950 65 ft 5 kts 35°
2026-05-09 15:22 51.45934 5.38989 69 ft 7 kts 21°
2026-05-09 15:22 51.45974 5.38972 70 ft 6 kts 320°
2026-05-09 15:23 51.46003 5.38912 74 ft 8 kts 304°
2026-05-09 15:23 51.46038 5.38830 71 ft 10 kts 305°
2026-05-09 15:23 51.46076 5.38744 72 ft 9 kts 305°
2026-05-09 15:23 51.46113 5.38660 69 ft 9 kts 306°
2026-05-09 15:24 51.46149 5.38579 70 ft 9 kts 304°
2026-05-09 15:24 51.46171 5.38492 66 ft 9 kts 260°
2026-05-09 15:24 51.46131 5.38425 74 ft 9 kts 214°
2026-05-09 15:24 51.46076 5.38364 72 ft 11 kts 215°
2026-05-09 15:25 51.46009 5.38287 67 ft 13 kts 215°
2026-05-09 15:25 51.45925 5.38193 71 ft 16 kts 214°
2026-05-09 15:25 51.45824 5.38081 74 ft 19 kts 214°
2026-05-09 15:26 51.45579 5.37806 70 ft 24 kts 215°
2026-05-09 15:26 51.45442 5.37652 69 ft 24 kts 215°
2026-05-09 15:26 51.45303 5.37497 67 ft 25 kts 215°
2026-05-09 15:26 51.45165 5.37342 65 ft 23 kts 215°
2026-05-09 15:27 51.45033 5.37194 66 ft 22 kts 215°
2026-05-09 15:27 51.44906 5.37052 69 ft 22 kts 215°
2026-05-09 15:27 51.44783 5.36915 69 ft 21 kts 215°
2026-05-09 15:27 51.44662 5.36779 71 ft 21 kts 215°
2026-05-09 15:28 51.44546 5.36650 71 ft 20 kts 215°
2026-05-09 15:28 51.44426 5.36514 69 ft 21 kts 215°
2026-05-09 15:28 51.44305 5.36379 74 ft 21 kts 215°
2026-05-09 15:28 51.44209 5.36272 67 ft 11 kts 214°
2026-05-09 15:29 51.44161 5.36292 72 ft 6 kts 134°
2026-05-09 15:29 51.44136 5.36346 68 ft 6 kts 126°
2026-05-09 15:29 51.44111 5.36408 66 ft 7 kts 117°
2026-05-09 15:29 51.44126 5.36457 74 ft 5 kts 34°
2026-05-09 15:30 51.44131 5.36462 74 ft 0 kts 34°
2026-05-09 15:30 51.44144 5.36477 72 ft 16 kts 34°
2026-05-09 15:30 51.44460 5.36831 66 ft 91 kts 35°
2026-05-09 15:30 51.45150 5.37607 67 ft 152 kts 35°
2026-05-09 15:31 51.46138 5.38687 455 ft 174 kts 33°
2026-05-09 15:31 51.47102 5.39759 1467 ft 164 kts 35°
2026-05-09 15:31 51.48047 5.40800 2216 ft 167 kts 35°
2026-05-09 15:31 51.49021 5.41870 2736 ft 171 kts 34°
2026-05-09 15:32 51.50028 5.42965 3284 ft 175 kts 36°
2026-05-09 15:32 51.51123 5.44009 3488 ft 199 kts 14°
2026-05-09 15:32 51.52539 5.43680 3648 ft 219 kts 328°
2026-05-09 15:32 51.53503 5.41731 3879 ft 233 kts 288°
2026-05-09 15:33 51.53546 5.39114 4382 ft 237 kts 255°
2026-05-09 15:33 51.53087 5.36563 5066 ft 236 kts 253°
2026-05-09 15:33 51.52635 5.34013 5772 ft 235 kts 253°
2026-05-09 15:33 51.52210 5.31506 6521 ft 232 kts 253°
2026-05-09 15:34 51.51798 5.28984 7125 ft 237 kts 254°
2026-05-09 15:34 51.51382 5.26366 7747 ft 239 kts 256°
2026-05-09 15:34 51.50987 5.23768 8334 ft 244 kts 255°
2026-05-09 15:34 51.50581 5.21097 8976 ft 248 kts 256°
2026-05-09 15:35 51.50349 5.18357 9571 ft 255 kts 275°
2026-05-09 15:35 51.50770 5.15469 9787 ft 276 kts 286°
2026-05-09 15:35 51.51333 5.12444 10256 ft 288 kts 285°
2026-05-09 15:35 51.51919 5.09246 10428 ft 310 kts 285°
2026-05-09 15:36 51.52534 5.05800 10632 ft 330 kts 284°
2026-05-09 15:36 51.52959 5.03373 10898 ft 338 kts 284°
2026-05-09 15:36 51.53593 4.99705 11470 ft 344 kts 284°
2026-05-09 15:36 51.54229 4.95979 12002 ft 353 kts 284°
2026-05-09 15:37 51.54891 4.92061 12128 ft 372 kts 284°
2026-05-09 15:37 51.55578 4.87946 12302 ft 388 kts 282°
2026-05-09 15:37 51.55813 4.83620 12735 ft 393 kts 263°
2026-05-09 15:37 51.55363 4.79295 13462 ft 392 kts 257°
2026-05-09 15:38 51.54798 4.75001 14100 ft 394 kts 256°
2026-05-09 15:38 51.54146 4.70710 14669 ft 397 kts 255°
2026-05-09 15:38 51.53492 4.66387 15262 ft 399 kts 256°
2026-05-09 15:38 51.52865 4.62040 15878 ft 401 kts 256°
2026-05-09 15:39 51.52258 4.57652 16466 ft 403 kts 256°
2026-05-09 15:39 51.51653 4.53240 17029 ft 406 kts 256°
2026-05-09 15:39 51.50935 4.48776 17580 ft 408 kts 248°
2026-05-09 15:39 51.49460 4.44919 18133 ft 410 kts 229°
2026-05-09 15:40 51.47341 4.41818 18657 ft 413 kts 214°
2026-05-09 15:40 51.44692 4.39582 19148 ft 417 kts 205°
2026-05-09 15:40 51.42041 4.37652 19584 ft 420 kts 205°
2026-05-09 15:40 51.39376 4.35681 20035 ft 423 kts 205°
2026-05-09 15:41 51.36704 4.33697 20498 ft 425 kts 205°
2026-05-09 15:41 51.34016 4.31695 20948 ft 427 kts 205°
2026-05-09 15:41 51.31317 4.29683 21382 ft 429 kts 205°
2026-05-09 15:41 51.28610 4.27638 21812 ft 431 kts 206°
2026-05-09 15:42 51.25892 4.25564 22211 ft 434 kts 206°
2026-05-09 15:42 51.23163 4.23476 22598 ft 436 kts 206°
2026-05-09 15:42 51.20422 4.21389 22984 ft 438 kts 206°
2026-05-09 15:42 51.17660 4.19295 23360 ft 441 kts 206°
2026-05-09 15:43 51.14840 4.17333 23709 ft 443 kts 201°
2026-05-09 15:43 51.11922 4.15706 24013 ft 445 kts 199°
2026-05-09 15:43 51.08975 4.14162 24325 ft 447 kts 199°
2026-05-09 15:43 51.06018 4.12621 24630 ft 448 kts 199°
2026-05-09 15:44 51.03052 4.11050 24930 ft 450 kts 199°
2026-05-09 15:44 51.00039 4.09427 25226 ft 451 kts 199°
2026-05-09 15:44 50.97064 4.07806 25507 ft 453 kts 199°
2026-05-09 15:44 50.94071 4.06169 25853 ft 453 kts 199°
2026-05-09 15:45 50.91105 4.04552 26277 ft 450 kts 199°
2026-05-09 15:45 50.88146 4.02946 26740 ft 448 kts 199°
2026-05-09 15:45 50.85236 4.01224 27161 ft 446 kts 201°
2026-05-09 15:45 50.82358 3.99387 27557 ft 446 kts 202°
2026-05-09 15:46 50.79492 3.97508 27939 ft 445 kts 204°
2026-05-09 15:46 50.76623 3.95627 28212 ft 447 kts 203°
2026-05-09 15:46 50.73740 3.93765 28573 ft 447 kts 203°
2026-05-09 15:46 50.70884 3.91868 29028 ft 444 kts 203°
2026-05-09 15:47 50.68027 3.90041 29495 ft 442 kts 202°
2026-05-09 15:47 50.65171 3.88241 29911 ft 441 kts 202°
2026-05-09 15:47 50.62325 3.86443 30263 ft 441 kts 202°
2026-05-09 15:47 50.59498 3.84650 30608 ft 439 kts 202°
2026-05-09 15:48 50.56674 3.82844 30954 ft 438 kts 205°
2026-05-09 15:48 50.53903 3.80876 31259 ft 437 kts 205°
2026-05-09 15:48 50.51129 3.78918 31562 ft 437 kts 204°
2026-05-09 15:48 50.48303 3.77146 31897 ft 436 kts 202°
2026-05-09 15:49 50.45505 3.75323 32237 ft 435 kts 204°
2026-05-09 15:49 50.42744 3.73403 32548 ft 434 kts 205°
2026-05-09 15:49 50.39987 3.71466 32839 ft 434 kts 204°
2026-05-09 15:49 50.37229 3.69563 33164 ft 433 kts 204°
2026-05-09 15:50 50.34465 3.67699 33497 ft 432 kts 204°
2026-05-09 15:50 50.31728 3.65797 33857 ft 429 kts 205°
2026-05-09 15:50 50.28991 3.63925 34122 ft 429 kts 205°
2026-05-09 15:50 50.26250 3.62054 34309 ft 430 kts 204°
2026-05-09 15:51 50.23497 3.60226 34545 ft 430 kts 204°
2026-05-09 15:51 50.20741 3.58400 34808 ft 429 kts 204°
2026-05-09 15:51 50.18000 3.56578 35049 ft 428 kts 204°
2026-05-09 15:51 50.15257 3.54746 35267 ft 428 kts 204°
2026-05-09 15:52 50.09804 3.51094 35800 ft 425 kts 204°
2026-05-09 15:52 50.07098 3.49248 35998 ft 424 kts 206°
2026-05-09 15:52 50.04385 3.47412 36186 ft 425 kts 205°
2026-05-09 15:53 50.01665 3.45603 36353 ft 426 kts 205°
2026-05-09 15:53 49.98932 3.43795 36545 ft 426 kts 205°
2026-05-09 15:53 49.96213 3.41995 36765 ft 425 kts 205°
2026-05-09 15:53 49.93498 3.40196 36967 ft 425 kts 205°
2026-05-09 15:54 49.90779 3.38392 36990 ft 427 kts 205°
2026-05-09 15:54 49.85323 3.34773 36999 ft 425 kts 205°
2026-05-09 15:55 49.79906 3.31185 37001 ft 422 kts 205°
2026-05-09 15:55 49.74512 3.27621 37004 ft 420 kts 205°
2026-05-09 15:56 49.69137 3.24077 36988 ft 419 kts 206°
2026-05-09 15:56 49.63790 3.20560 36994 ft 418 kts 206°
2026-05-09 15:57 49.58438 3.17046 36995 ft 418 kts 206°
2026-05-09 15:57 49.53053 3.13517 37016 ft 418 kts 205°
2026-05-09 15:58 49.47725 3.09800 36975 ft 416 kts 213°
2026-05-09 15:58 49.42914 3.04916 36996 ft 414 kts 215°
2026-05-09 15:59 49.38115 3.00000 36987 ft 414 kts 215°
2026-05-09 15:59 49.33308 2.95118 36991 ft 414 kts 215°
2026-05-09 16:00 49.29280 2.91047 36991 ft 414 kts 215°
2026-05-09 16:00 49.24474 2.86202 36984 ft 414 kts 215°
2026-05-09 16:01 49.19659 2.81359 36991 ft 414 kts 215°
2026-05-09 16:01 49.14841 2.76524 36992 ft 414 kts 214°
2026-05-09 16:02 49.10018 2.71694 36994 ft 414 kts 214°
2026-05-09 16:02 49.02772 2.64455 36983 ft 415 kts 214°
2026-05-09 16:03 48.97938 2.59642 37000 ft 414 kts 214°
2026-05-09 16:03 48.93110 2.54852 36990 ft 414 kts 214°
2026-05-09 16:04 48.88259 2.50052 36967 ft 413 kts 214°
2026-05-09 16:04 48.83472 2.45320 36970 ft 413 kts 214°
2026-05-09 16:05 48.78630 2.40539 36965 ft 412 kts 214°
2026-05-09 16:05 48.73820 2.35799 36967 ft 412 kts 214°
2026-05-09 16:06 48.69011 2.31071 36971 ft 412 kts 214°
2026-05-09 16:06 48.64198 2.26345 36965 ft 412 kts 214°
2026-05-09 16:07 48.59375 2.21644 36964 ft 412 kts 212°
2026-05-09 16:07 48.54165 2.18250 36966 ft 417 kts 197°
2026-05-09 16:08 48.48470 2.16435 36952 ft 418 kts 194°
2026-05-09 16:08 48.42769 2.14655 36950 ft 418 kts 195°
2026-05-09 16:09 48.37090 2.12830 36940 ft 416 kts 195°
2026-05-09 16:09 48.31427 2.11014 36935 ft 415 kts 194°
2026-05-09 16:10 48.25629 2.10494 36940 ft 422 kts 178°
2026-05-09 16:10 48.19791 2.11801 36916 ft 424 kts 176°
2026-05-09 16:11 48.13920 2.13084 36929 ft 423 kts 176°
2026-05-09 16:11 48.08087 2.13677 36930 ft 419 kts 182°
2026-05-09 16:12 48.02255 2.13945 36942 ft 419 kts 182°
2026-05-09 16:12 47.96411 2.14228 36936 ft 420 kts 182°
2026-05-09 16:13 47.90558 2.14550 36938 ft 421 kts 182°
2026-05-09 16:13 47.84691 2.14888 36939 ft 422 kts 182°
2026-05-09 16:14 47.78822 2.15229 36923 ft 422 kts 182°
2026-05-09 16:14 47.72952 2.15569 36915 ft 422 kts 182°
2026-05-09 16:15 47.67083 2.15908 36920 ft 422 kts 182°
2026-05-09 16:15 47.61209 2.16245 36917 ft 422 kts 182°
2026-05-09 16:16 47.55328 2.16582 36910 ft 422 kts 182°
2026-05-09 16:16 47.49422 2.16920 36918 ft 422 kts 182°
2026-05-09 16:17 47.43542 2.17255 36918 ft 422 kts 182°
2026-05-09 16:17 47.37666 2.17589 36907 ft 422 kts 182°
2026-05-09 16:18 47.31831 2.17919 36908 ft 422 kts 181°
2026-05-09 16:18 47.25951 2.18251 36906 ft 422 kts 181°
2026-05-09 16:19 47.20078 2.18579 36920 ft 422 kts 181°
2026-05-09 16:19 47.14205 2.18909 36913 ft 422 kts 181°
2026-05-09 16:20 47.08339 2.19774 36917 ft 428 kts 171°
2026-05-09 16:20 47.02664 2.22730 36932 ft 434 kts 162°
2026-05-09 16:21 46.96994 2.26127 36923 ft 435 kts 162°
2026-05-09 16:21 46.91388 2.29442 36915 ft 434 kts 163°
2026-05-09 16:22 46.85736 2.32742 36917 ft 434 kts 163°
2026-05-09 16:22 46.80115 2.36003 36916 ft 434 kts 163°
2026-05-09 16:23 46.74499 2.39254 36915 ft 434 kts 163°
2026-05-09 16:23 46.69795 2.41970 36913 ft 434 kts 163°
2026-05-09 16:24 46.64188 2.45202 36908 ft 433 kts 163°
2026-05-09 16:24 46.58571 2.48433 36912 ft 434 kts 163°
2026-05-09 16:25 46.52955 2.51656 36909 ft 434 kts 163°
2026-05-09 16:25 46.47327 2.54879 36910 ft 435 kts 163°
2026-05-09 16:26 46.41690 2.58100 36917 ft 435 kts 163°
2026-05-09 16:26 46.36021 2.61331 36912 ft 435 kts 163°
2026-05-09 16:27 46.30384 2.64538 36913 ft 435 kts 163°
2026-05-09 16:27 46.24747 2.67737 36916 ft 435 kts 163°
2026-05-09 16:28 46.19111 2.70928 36915 ft 435 kts 163°
2026-05-09 16:28 46.13515 2.74089 36904 ft 434 kts 163°
2026-05-09 16:29 46.07851 2.77281 36911 ft 434 kts 163°
2026-05-09 16:29 46.02229 2.80443 36912 ft 433 kts 163°
2026-05-09 16:30 45.96599 2.83552 36925 ft 433 kts 164°
2026-05-09 16:30 45.90935 2.86537 36925 ft 433 kts 164°
2026-05-09 16:31 45.85231 2.89537 36931 ft 434 kts 164°
2026-05-09 16:31 45.79566 2.92529 36936 ft 434 kts 164°
2026-05-09 16:32 45.74799 2.94708 36930 ft 430 kts 173°
2026-05-09 16:32 45.70849 2.95333 36923 ft 424 kts 184°
2026-05-09 16:32 45.67868 2.95241 36935 ft 423 kts 184°
2026-05-09 16:33 45.61971 2.95023 36935 ft 424 kts 184°
2026-05-09 16:33 45.56062 2.94831 36944 ft 425 kts 184°
2026-05-09 16:34 45.50144 2.94663 36938 ft 425 kts 184°
2026-05-09 16:34 45.44222 2.94504 36946 ft 426 kts 184°
2026-05-09 16:35 45.38290 2.94345 36944 ft 426 kts 184°
2026-05-09 16:35 45.32355 2.94186 36953 ft 425 kts 184°
2026-05-09 16:36 45.20511 2.93868 36953 ft 426 kts 184°
2026-05-09 16:37 45.14587 2.93709 36954 ft 425 kts 184°
2026-05-09 16:37 45.08688 2.93550 36957 ft 424 kts 184°
2026-05-09 16:38 45.02802 2.93392 36956 ft 423 kts 184°
2026-05-09 16:38 44.96926 2.93234 36963 ft 422 kts 184°
2026-05-09 16:39 44.91066 2.93074 36975 ft 420 kts 184°
2026-05-09 16:39 44.85180 2.92919 36971 ft 420 kts 184°
2026-05-09 16:40 44.79366 2.92595 36972 ft 417 kts 185°
2026-05-09 16:42 44.56222 2.90832 36967 ft 416 kts 185°
2026-05-09 16:42 44.50441 2.90412 36974 ft 416 kts 185°
2026-05-09 16:43 44.44663 2.89993 36967 ft 415 kts 185°
2026-05-09 16:43 44.38890 2.89575 36970 ft 415 kts 185°
2026-05-09 16:44 44.33081 2.89154 36977 ft 415 kts 185°
2026-05-09 16:44 44.27301 2.88737 36976 ft 415 kts 185°
2026-05-09 16:45 44.21526 2.88321 36968 ft 416 kts 185°
2026-05-09 16:45 44.15712 2.87902 36961 ft 416 kts 185°
2026-05-09 16:46 44.09892 2.87484 36965 ft 416 kts 185°
2026-05-09 16:46 44.04107 2.87069 36964 ft 416 kts 185°
2026-05-09 16:47 43.99270 2.86722 36965 ft 416 kts 185°
2026-05-09 16:47 43.93481 2.86307 36954 ft 416 kts 185°
2026-05-09 16:48 43.87662 2.85890 36959 ft 416 kts 185°
2026-05-09 16:48 43.81880 2.85476 36955 ft 416 kts 185°
2026-05-09 16:49 43.76098 2.85154 36961 ft 415 kts 182°
2026-05-09 16:50 43.67426 2.85313 36958 ft 415 kts 181°
2026-05-09 16:50 43.61624 2.85448 36961 ft 414 kts 181°
2026-05-09 16:51 43.55877 2.85549 36944 ft 412 kts 181°
2026-05-09 16:51 43.50150 2.85635 36942 ft 411 kts 181°
2026-05-09 16:52 43.44439 2.85718 36952 ft 410 kts 181°
2026-05-09 16:52 43.38731 2.85800 36946 ft 410 kts 181°
2026-05-09 16:53 43.33024 2.85883 36953 ft 410 kts 181°
2026-05-09 16:53 43.27303 2.85965 36949 ft 411 kts 181°
2026-05-09 16:54 43.21590 2.86048 36949 ft 411 kts 181°
2026-05-09 16:54 43.15866 2.86130 36959 ft 411 kts 180°
2026-05-09 16:55 43.10120 2.86189 36931 ft 413 kts 184°
2026-05-09 16:55 43.04401 2.86173 36958 ft 410 kts 178°
2026-05-09 16:56 42.98710 2.86436 36961 ft 409 kts 180°
2026-05-09 16:56 42.92998 2.86490 36950 ft 412 kts 180°
2026-05-09 16:57 42.87247 2.86539 36942 ft 414 kts 180°
2026-05-09 16:57 42.81482 2.86614 36924 ft 413 kts 180°
2026-05-09 16:58 42.75733 2.86697 36936 ft 411 kts 180°
2026-05-09 16:58 42.70012 2.86236 36939 ft 413 kts 185°
2026-05-09 16:59 42.64295 2.85492 36937 ft 412 kts 185°
2026-05-09 16:59 42.58592 2.84784 36956 ft 411 kts 185°
2026-05-09 17:00 42.52860 2.84106 36935 ft 415 kts 184°
2026-05-09 17:00 42.47108 2.83359 36943 ft 415 kts 185°
2026-05-09 17:01 42.41352 2.82781 36603 ft 419 kts 185°
2026-05-09 17:01 42.38458 2.82455 36122 ft 417 kts 185°
2026-05-09 17:01 42.35493 2.82108 35488 ft 416 kts 184°
2026-05-09 17:01 42.32650 2.81729 34829 ft 416 kts 185°
2026-05-09 17:02 42.29762 2.81368 34184 ft 417 kts 183°
2026-05-09 17:02 42.26857 2.81095 33448 ft 419 kts 184°
2026-05-09 17:02 42.23945 2.80780 32699 ft 420 kts 184°
2026-05-09 17:02 42.21028 2.80441 31967 ft 421 kts 184°
2026-05-09 17:03 42.18066 2.80091 31269 ft 422 kts 185°
2026-05-09 17:04 41.97894 2.75172 25452 ft 435 kts 218°
2026-05-09 17:05 41.95826 2.72205 24868 ft 436 kts 232°
2026-05-09 17:05 41.94375 2.68655 24439 ft 435 kts 244°
2026-05-09 17:05 41.93553 2.64674 24016 ft 454 kts 258°
2026-05-09 17:05 41.93480 2.60361 23586 ft 466 kts 267°
2026-05-09 17:06 41.93620 2.55992 23023 ft 468 kts 268°
2026-05-09 17:06 41.93804 2.51660 22545 ft 462 kts 269°
2026-05-09 17:06 41.93988 2.47378 22090 ft 456 kts 269°
2026-05-09 17:06 41.94155 2.43151 21658 ft 452 kts 268°
2026-05-09 17:07 41.94303 2.38953 21232 ft 448 kts 268°
2026-05-09 17:07 41.94350 2.37541 21088 ft 447 kts 268°
2026-05-09 17:07 41.94563 2.30628 20381 ft 444 kts 268°
2026-05-09 17:07 41.94684 2.26497 19986 ft 442 kts 269°
2026-05-09 17:08 41.94832 2.22408 19553 ft 433 kts 269°
2026-05-09 17:08 41.95050 2.14416 18746 ft 426 kts 268°
2026-05-09 17:08 41.95151 2.10452 18335 ft 425 kts 268°
2026-05-09 17:09 41.95255 2.06489 17874 ft 423 kts 269°
2026-05-09 17:09 41.95361 2.02549 17439 ft 422 kts 269°
2026-05-09 17:09 41.95469 1.98609 17021 ft 420 kts 269°
2026-05-09 17:09 41.95577 1.94686 16612 ft 419 kts 269°
2026-05-09 17:10 41.95693 1.90769 16213 ft 419 kts 270°
2026-05-09 17:10 41.95778 1.86877 15812 ft 416 kts 269°
2026-05-09 17:10 41.95868 1.83012 15411 ft 414 kts 269°
2026-05-09 17:10 41.95590 1.79189 14998 ft 409 kts 251°
2026-05-09 17:11 41.94322 1.75765 14637 ft 400 kts 233°
2026-05-09 17:11 41.92492 1.73040 14240 ft 389 kts 218°
2026-05-09 17:11 41.90330 1.70921 13884 ft 378 kts 213°
2026-05-09 17:11 41.88159 1.68918 13476 ft 370 kts 213°
2026-05-09 17:12 41.86088 1.66923 13080 ft 363 kts 213°
2026-05-09 17:12 41.84015 1.65059 12717 ft 355 kts 212°
2026-05-09 17:12 41.81994 1.63192 12379 ft 349 kts 213°
2026-05-09 17:12 41.80039 1.61324 12036 ft 343 kts 214°
2026-05-09 17:13 41.78761 1.60098 11828 ft 339 kts 214°
2026-05-09 17:13 41.76863 1.58324 11496 ft 326 kts 213°
2026-05-09 17:13 41.75067 1.56561 11206 ft 313 kts 214°
2026-05-09 17:13 41.73249 1.54999 10888 ft 300 kts 200°
2026-05-09 17:14 41.71263 1.54330 10682 ft 291 kts 188°
2026-05-09 17:14 41.69279 1.53834 10457 ft 287 kts 188°
2026-05-09 17:14 41.67340 1.53348 10217 ft 282 kts 188°
2026-05-09 17:14 41.65416 1.52885 9954 ft 280 kts 187°
2026-05-09 17:15 41.63488 1.52409 9685 ft 284 kts 188°
2026-05-09 17:15 41.61532 1.51941 9419 ft 287 kts 187°
2026-05-09 17:15 41.59569 1.51455 9146 ft 285 kts 189°
2026-05-09 17:15 41.57622 1.50960 8903 ft 285 kts 188°
2026-05-09 17:16 41.55678 1.50452 8656 ft 285 kts 188°
2026-05-09 17:17 41.42683 1.45362 6414 ft 255 kts 196°
2026-05-09 17:18 41.40993 1.44701 6132 ft 251 kts 195°
2026-05-09 17:18 41.39330 1.44039 5889 ft 249 kts 195°
2026-05-09 17:18 41.37678 1.43376 5622 ft 247 kts 195°
2026-05-09 17:18 41.36033 1.42732 5364 ft 245 kts 194°
2026-05-09 17:19 41.34425 1.42083 5114 ft 237 kts 196°
2026-05-09 17:19 41.32894 1.41453 5001 ft 224 kts 195°
2026-05-09 17:19 41.31410 1.40882 4700 ft 220 kts 194°
2026-05-09 17:19 41.29961 1.40325 4494 ft 212 kts 194°
2026-05-09 17:20 41.28561 1.39769 4227 ft 207 kts 194°
2026-05-09 17:20 41.27205 1.39229 4008 ft 200 kts 194°
2026-05-09 17:20 41.25893 1.38722 3811 ft 193 kts 194°
2026-05-09 17:20 41.24625 1.38219 3609 ft 187 kts 193°
2026-05-09 17:21 41.23391 1.37733 3428 ft 183 kts 193°
2026-05-09 17:21 41.22160 1.37246 3203 ft 185 kts 197°
2026-05-09 17:21 41.20966 1.36727 3064 ft 175 kts 205°
2026-05-09 17:21 41.20193 1.35507 3014 ft 186 kts 249°
2026-05-09 17:22 41.19732 1.33865 2705 ft 190 kts 246°
2026-05-09 17:22 41.19252 1.32247 2445 ft 187 kts 250°
2026-05-09 17:22 41.18788 1.30642 2185 ft 186 kts 248°
2026-05-09 17:22 41.18328 1.29076 1948 ft 181 kts 249°
2026-05-09 17:23 41.17884 1.27532 1752 ft 175 kts 249°
2026-05-09 17:23 41.17457 1.26073 1486 ft 160 kts 248°
2026-05-09 17:23 41.17059 1.24714 1264 ft 157 kts 247°
2026-05-09 17:23 41.16674 1.23370 1048 ft 153 kts 250°
2026-05-09 17:25 41.14859 1.17127 240 ft 69 kts 249°
2026-05-09 17:25 41.14738 1.16713 240 ft 46 kts 249°
2026-05-09 17:25 41.14625 1.16329 240 ft 42 kts 248°
2026-05-09 17:25 41.14540 1.16038 240 ft 22 kts 249°
2026-05-09 17:26 41.14545 1.15911 240 ft 11 kts 331°
2026-05-09 17:26 41.14610 1.15878 240 ft 8 kts 339°
2026-05-09 17:26 41.14652 1.15863 240 ft 6 kts
2026-05-09 17:26 41.14678 1.15901 240 ft 6 kts 66°
2026-05-09 17:27 41.14696 1.15950 240 ft 6 kts 44°
2026-05-09 17:27 41.14730 1.15955 240 ft 3 kts 345°
2026-05-09 17:27 41.14748 1.15945 240 ft 3 kts 338°
2026-05-09 17:27 41.14766 1.15936 240 ft 3 kts 338°
2026-05-09 17:28 41.14774 1.15932 240 ft 0 kts 338°